Flag for U.S.A. Weather past 2 weeks in Portland, Maine, U.S.A.

Now
66 °F

Passing clouds.


Feels Like: 66 °F
Forecast: 64 / 70 °F
Wind: 3 mph from Southwest

Location: Portland - Portland International Jetport

Current Time: Jul 28, 2014 at 1:13:35 AM

Latest Report: Jul 27, 2014 at 11:51 PM


Visibility: 7 mi

Pressure: 29.67 "Hg

Humidity: 96%

Dew point: 65 °F

Location of PortlandLocation

Historic Weather in Portland — Graph

°F

Portland temperature yesterday

Maximum temperature yesterday: 72 °F (at 10:51 AM)
Minimum temperature yesterday: 61 °F (at 5:51 AM)
Average temperature yesterday: 67 °F

Past Weeks' High & Low Weather Summary

 TemperatureHumidityPressure
High86 °F (Jul 23, 1:51 PM)100% (Jul 16, 12:49 AM)30.28 "Hg (Jul 16, 12:49 AM)
Low55 °F (Jul 21, 4:51 AM)43% (Jul 18, 11:51 AM)29.67 "Hg (Jul 27, 11:51 PM)
Average69 °F78%29.96 "Hg
* Reported Jul 12 11:51 PM — Jul 27 11:51 PM, Portland, Weather by CustomWeather, © 2014

Note: Actual official high and low records may vary slightly from our data, if they occured in-between our weather recording intervals... More about our weather records

Advertising

Portland weather history for previous 24 hours

 ConditionsComfort  
Time TempWeatherWind HumidityBarometerVisibility
11:51 PM
Jul 27
66 °FPassing clouds.3 mph96%29.67 "Hg7 mi
10:51 PM67 °FLow clouds.3 mph93%29.69 "Hg7 mi
9:51 PM67 °FLow clouds.3 mph90%29.70 "Hg10 mi
8:51 PM66 °FLow clouds.No wind90%29.70 "Hg10 mi
7:51 PM67 °FOvercast.5 mph87%29.70 "Hg10 mi
6:58 PM67 °FOvercast.6 mph85%29.70 "Hg10 mi
5:51 PM67 °FLow clouds.10 mph90%29.70 "Hg10 mi
4:51 PM67 °FMostly cloudy.15 mph90%29.71 "Hg8 mi
3:51 PM68 °FFog.13 mph90%29.73 "Hg6 mi
3:04 PM68 °FFog.7 mph93%29.74 "Hg5 mi
1:51 PM67 °FLight rain. Fog.12 mph93%29.75 "Hg3 mi
1:00 PM69 °FMostly cloudy.6 mph87%29.76 "Hg10 mi
11:51 AM71 °FPartly sunny.10 mph81%29.77 "Hg10 mi
10:51 AM72 °FPassing clouds.10 mph81%29.77 "Hg9 mi
9:51 AM71 °FScattered clouds.5 mph81%29.78 "Hg10 mi
8:58 AM69 °FPartly sunny.7 mph84%29.81 "Hg10 mi
7:51 AM66 °FPartly sunny.6 mph90%29.81 "Hg10 mi
6:51 AM64 °FPartly sunny.No wind90%29.82 "Hg10 mi
5:51 AM61 °FPassing clouds.No wind90%29.83 "Hg9 mi
4:51 AM62 °FPassing clouds.No wind90%29.83 "Hg10 mi
3:51 AM62 °FClear.No wind86%29.83 "Hg10 mi
2:51 AM64 °FClear.3 mph84%29.83 "Hg10 mi
1:51 AM66 °FClear.No wind78%29.85 "Hg10 mi
Weather by CustomWeather, © 2014

See weather overviewHow to use our weather pages